Regional Weather Roundup
Issued by NWS Cleveland, OH

Home | Current Version | Previous Version | Text Only | Print | Product List | Glossary Off
Versions: 1 2 3 4 5 6 7 8 9 10 11 12 13 14 15 16 17 18 19 20 21 22 23 24 25 26 27 28 29 30 31 32 33 34 35 36 37 38 39 40 41 42 43 44 45 46 47 48 49 50

000
ASUS41 KCLE 050700
RWRCLE
OHIO REGIONAL WEATHER ROUNDUP
NATIONAL WEATHER SERVICE WILMINGTON, OH
200 AM EST MON DEC 05 2016

NOTE: "FAIR" INDICATES FEW OR NO CLOUDS BELOW 12,000 FEET WITH NO
SIGNIFICANT WEATHER AND/OR OBSTRUCTIONS TO VISIBILITY.

OHZ001>008-015>018-024>027-034-035-043-044-050800-
   NORTHWEST OHIO

CITY           SKY/WX    TMP DP  RH WIND       PRES   REMARKS
DEFIANCE       CLOUDY    36  30  79 VRB7      29.92R
FINDLAY        CLOUDY    35  31  85 W17       29.91R WCI  25
TOLEDO EXPRESS CLOUDY    34  34 100 W15G24    29.89R WCI  24
TOLEDO EXEC    CLOUDY    36  34  92 W17       29.89R
LIMA           CLOUDY    34  32  92 W20       29.93R WCI  23
$$

OHZ009>014-019>023-028>033-038-089-050800-
   NORTHEAST OHIO

CITY           SKY/WX    TMP DP  RH WIND       PRES   REMARKS
CLE-HOPKINS    CLOUDY    40  35  83 SW12      29.87R
CLE-LAKEFRONT  CLOUDY    40  36  86 SW22G28   29.84R
CUY CO. ARPT   NOT AVBL
LORAIN-ELYRIA  CLOUDY    38  34  85 W18       29.86R
ASHTABULA      MIX PCPN  36  34  92 S10       29.81S
AKRON-CANTON   CLOUDY    39  35  86 W14G22    29.85R FOG
WOOSTER        NOT AVBL
MANSFIELD      CLOUDY    37  35  92 W18G30    29.86R
YOUNGSTOWN     LGT RAIN  37  35  92 SW8       29.83R FOG
$$

OHZ042-051>053-060>062-070>072-077>081-050800-
  SOUTHWEST OHIO

CITY           SKY/WX    TMP DP  RH WIND       PRES   REMARKS
CINC-COVINGTON CLOUDY    40  36  86 W12       29.99R
CINC-LUNKEN    CLOUDY    42  38  85 W12       30.02R
HAMILTON       CLOUDY    40  34  79 W13       30.01R
DAYTON         CLOUDY    37  33  85 W15G26    29.96R
WRIGHT-PAT AFB CLOUDY    39  37  93 W15G22    29.96R
DAYTON GENERAL CLOUDY    39  32  76 W16G23    29.97R
WILMINGTON     CLOUDY    39  36  89 W17G26    29.97R
$$

OHZ036-037-039>041-045>050-054>059-063>069-073>076-082>088-050800-
  CENTRAL AND SOUTHEAST OHIO

CITY           SKY/WX    TMP DP  RH WIND       PRES   REMARKS
COLUMBUS       CLOUDY    42  39  89 W17G24    29.93R
OSU AIRPORT    CLOUDY    41  38  89 W16G22    29.93R
BOLTON FIELD   NOT AVBL
RICKENBACK AFB NOT AVBL
NEWARK         CLOUDY    42  39  89 W18       29.92R
MARION         CLOUDY    37  33  85 W18G31    29.92R
LANCASTER      CLOUDY    43  39  86 W15G25    29.94R
ZANESVILLE     CLOUDY    43  40  89 W12       29.91R
NEW PHILLY     CLOUDY    40  39  97 W8        29.89R
$$




USA.gov is the U.S. government's official web portal to all federal, state and local government web resources and services.